QPF
0.01 0.00 0.01 0.01 0.01 0.01 0.01 0.01 0.01 0.01 0.02 0.02 0.02 0.01 0.01 0.02 0.02 0.02 0.02 0.05 0.05 0.07 0.08 0.08 0.09 0.09 0.08 0.07 0.05 0.04 0.03 0.02 0.01 0.02 0.02 0.02 0.01 0.01 0.00 0.01 0.01 0.00 0.00
0.01 0.01 0.01 0.01 0.01 0.02 0.02 0.01 0.01 0.02 0.01 0.01 0.01 0.02 0.01 0.01 0.02 0.02 0.02 0.03 0.06 0.07 0.08 0.09 0.11 0.11 0.10 0.10 0.09 0.07 0.07 0.06 0.03 0.02 0.02 0.03 0.02 0.01 0.01 0.01 0.01 0.01 0.00
0.01 0.01 0.01 0.01 0.01 0.01 0.02 0.02 0.01 0.01 0.01 0.01 0.01 0.01 0.01 0.01 0.02 0.02 0.02 0.01 0.02 0.06 0.08 0.08 0.09 0.12 0.13 0.14 0.13 0.13 0.10 0.09 0.06 0.04 0.03 0.03 0.02 0.02 0.01 0.01 0.01 0.01 0.01
0.01 0.00 0.01 0.01 0.01 0.01 0.01 0.02 0.02 0.01 0.01 0.00 0.01 0.01 0.01 0.01 0.02 0.02 0.01 0.01 0.01 0.02 0.05 0.07 0.07 0.08 0.10 0.14 0.16 0.16 0.12 0.10 0.09 0.06 0.03 0.03 0.03 0.03 0.02 0.01 0.01 0.01 0.01
0.01 0.01 0.01 0.02 0.01 0.01 0.01 0.01 0.01 0.00 0.00 0.00 0.00 0.01 0.01 0.01 0.01 0.01 0.01 0.01 0.02 0.02 0.03 0.04 0.06 0.07 0.09 0.13 0.16 0.16 0.15 0.11 0.10 0.09 0.09 0.08 0.07 0.05 0.04 0.03 0.02 0.02 0.01
0.01 0.01 0.02 0.02 0.01 0.01 0.01 0.00 0.00 0.00 0.00 0.00 0.00 0.00 0.00 0.00 0.00 0.00 0.00 0.00 0.01 0.01 0.01 0.02 0.03 0.04 0.06 0.08 0.10 0.12 0.14 0.14 0.13 0.11 0.11 0.13 0.13 0.11 0.07 0.05 0.04 0.03 0.02
0.01 0.01 0.01 0.01 0.01 0.01 0.00 0.00 0.00 0.00 0.00 0.00 0.00 0.00 0.00 0.00 0.00 0.00 0.00 0.01 0.01 0.01 0.01 0.01 0.01 0.01 0.03 0.04 0.05 0.08 0.11 0.12 0.13 0.11 0.09 0.09 0.10 0.09 0.09 0.08 0.06 0.05 0.03
0.01 0.01 0.00 0.00 0.01 0.00 0.00 0.00 0.00 0.00 0.00 0.00 0.00 0.00 0.00 0.00 0.00 0.00 0.00 0.00 0.00 0.00 0.01 0.01 0.01 0.01 0.01 0.01 0.02 0.05 0.06 0.08 0.11 0.10 0.08 0.07 0.07 0.07 0.06 0.07 0.07 0.07 0.05
0.01 0.01 0.00 0.00 0.00 0.00 0.00 0.00 0.00 0.00 0.00 0.00 0.00 0.00 0.00 0.00 0.00 0.00 0.00 0.00 0.00 0.00 0.01 0.02 0.01 0.01 0.01 0.01 0.01 0.01 0.03 0.04 0.06 0.08 0.09 0.09 0.07 0.05 0.05 0.05 0.06 0.06 0.05
0.00 0.00 0.00 0.00 0.00 0.00 0.00 0.00 0.00 0.00 0.00 0.00 0.00 0.00 0.00 0.00 0.00 0.00 0.00 0.00 0.00 0.00 0.00 0.00 0.01 0.01 0.00 0.01 0.01 0.01 0.02 0.02 0.03 0.05 0.07 0.07 0.06 0.05 0.04 0.04 0.05 0.05 0.05
0.00 0.00 0.00 0.00 0.00 0.00 0.00 0.00 0.00 0.00 0.00 0.00 0.00 0.00 0.00 0.00 0.00 0.00 0.00 0.00 0.00 0.00 0.00 0.00 0.00 0.00 0.00 0.00 0.00 0.00 0.01 0.01 0.01 0.03 0.04 0.04 0.04 0.04 0.05 0.06 0.07 0.07 0.07
0.00 0.00 0.00 0.00 0.00 0.00 0.00 0.00 0.00 0.00 0.00 0.00 0.00 0.00 0.00 0.00 0.00 0.00 0.00 0.00 0.00 0.00 0.00 0.00 0.00 0.00 0.00 0.00 0.00 0.00 0.00 0.00 0.00 0.01 0.01 0.02 0.02 0.02 0.03 0.04 0.06 0.07 0.07
0.00 0.00 0.00 0.00 0.00 0.00 0.00 0.00 0.00 0.00 0.00 0.00 0.00 0.00 0.00 0.00 0.00 0.00 0.00 0.00 0.00 0.00 0.00 0.00 0.00 0.00 0.00 0.00 0.00 0.00 0.00 0.00 0.00 0.00 0.01 0.00 0.01 0.01 0.01 0.01 0.02 0.03 0.05
0.00 0.00 0.00 0.00 0.00 0.00 0.00 0.00 0.00 0.00 0.00 0.00 0.00 0.00 0.00 0.00 0.00 0.00 0.00 0.00 0.00 0.00 0.00 0.00 0.00 0.00 0.00 0.00 0.00 0.00 0.00 0.00 0.00 0.00 0.00 0.00 0.00 0.00 0.01 0.01 0.01 0.01 0.01
0.00 0.00 0.00 0.00 0.00 0.00 0.00 0.00 0.00 0.00 0.00 0.00 0.00 0.00 0.00 0.00 0.00 0.00 0.00 0.00 0.00 0.00 0.00 0.00 0.00 0.00 0.00 0.00 0.00 0.00 0.00 0.00 0.00 0.00 0.00 0.00 0.00 0.00 0.00 0.01 0.00 0.00 0.00
0.00 0.00 0.00 0.00 0.00 0.00 0.00 0.00 0.00 0.00 0.00 0.00 0.00 0.00 0.00 0.00 0.00 0.00 0.00 0.00 0.00 0.00 0.00 0.00 0.00 0.00 0.00 0.00 0.00 0.00 0.00 0.00 0.00 0.00 0.00 0.00 0.00 0.00 0.00 0.00 0.01 0.01 0.01
0.00 0.00 0.00 0.00 0.00 0.00 0.00 0.00 0.00 0.00 0.00 0.00 0.00 0.00 0.00 0.00 0.00 0.00 0.00 0.00 0.00 0.00 0.00 0.00 0.00 0.00 0.00 0.00 0.00 0.00 0.00 0.00 0.00 0.00 0.00 0.00 0.00 0.00 0.00 0.00 0.00 0.00 0.00
0.00 0.00 0.00 0.00 0.00 0.00 0.00 0.00 0.00 0.00 0.00 0.00 0.00 0.00 0.00 0.00 0.00 0.00 0.00 0.00 0.00 0.00 0.00 0.00 0.00 0.00 0.00 0.00 0.00 0.00 0.00 0.00 0.00 0.00 0.00 0.00 0.00 0.00 0.00 0.00 0.00 0.00 0.00
0.01 0.01 0.01 0.01 0.01 0.01 0.01 0.02 0.02 0.02 0.02 0.02 0.01 0.01 0.00 0.00 0.00 0.00 0.00 0.00 0.00 0.00 0.00 0.00 0.00 0.00 0.00 0.00 0.00 0.00 0.00 0.00 0.00 0.00 0.00 0.00 0.00 0.00 0.00 0.00 0.00 0.00 0.00
0.01 0.02 0.03 0.03 0.02 0.02 0.03 0.04 0.04 0.03 0.03 0.02 0.02 0.01 0.01 0.00 0.00 0.00 0.00 0.00 0.00 0.00 0.00 0.00 0.00 0.00 0.00 0.00 0.00 0.00 0.00 0.00 0.00 0.00 0.00 0.00 0.00 0.00 0.00 0.00 0.00 0.00 0.00
0.03 0.05 0.05 0.04 0.04 0.05 0.05 0.05 0.05 0.03 0.03 0.03 0.02 0.02 0.02 0.02 0.02 0.01 0.01 0.01 0.01 0.01 0.00 0.00 0.00 0.00 0.00 0.00 0.00 0.00 0.00 0.00 0.00 0.00 0.00 0.00 0.00 0.00 0.00 0.00 0.00 0.00 0.00
0.08 0.08 0.07 0.07 0.07 0.07 0.08 0.08 0.06 0.05 0.04 0.03 0.03 0.03 0.03 0.03 0.03 0.03 0.02 0.02 0.02 0.01 0.01 0.01 0.01 0.00 0.00 0.00 0.00 0.00 0.00 0.00 0.00 0.00 0.00 0.00 0.00 0.00 0.00 0.00 0.00 0.00 0.00
0.08 0.08 0.09 0.09 0.09 0.10 0.11 0.09 0.08 0.07 0.07 0.06 0.06 0.05 0.05 0.05 0.04 0.04 0.03 0.03 0.03 0.02 0.02 0.02 0.01 0.01 0.01 0.01 0.01 0.00 0.00 0.00 0.00 0.00 0.00 0.00 0.00 0.00 0.00 0.00 0.00 0.00 0.00
0.09 0.11 0.13 0.13 0.12 0.12 0.12 0.10 0.09 0.08 0.08 0.07 0.07 0.07 0.06 0.05 0.05 0.04 0.03 0.03 0.03 0.03 0.03 0.03 0.02 0.01 0.01 0.01 0.01 0.01 0.00 0.00 0.00 0.00 0.00 0.00 0.00 0.00 0.00 0.00 0.00 0.00 0.00
0.11 0.14 0.14 0.14 0.13 0.11 0.10 0.10 0.10 0.09 0.08 0.08 0.08 0.07 0.06 0.06 0.05 0.04 0.02 0.02 0.01 0.01 0.02 0.02 0.01 0.01 0.01 0.01 0.01 0.01 0.01 0.01 0.01 0.00 0.00 0.00 0.00 0.00 0.00 0.00 0.00 0.00 0.00
0.06 0.06 0.05 0.07 0.08 0.10 0.11 0.12 0.12 0.09 0.08 0.09 0.08 0.07 0.06 0.06 0.05 0.04 0.02 0.01 0.01 0.01 0.01 0.01 0.01 0.01 0.01 0.01 0.01 0.02 0.02 0.02 0.01 0.01 0.00 0.00 0.00 0.00 0.00 0.00 0.00 0.00 0.00
MSLP
1017.59 1017.66 1017.65 1017.61 1017.57 1017.58 1017.65 1017.79 1017.97 1018.15 1018.32 1018.43 1018.49 1018.52 1018.53 1018.56 1018.62 1018.75 1018.94 1019.18 1019.44 1019.71 1019.97 1020.20 1020.40 1020.59 1020.77 1020.97 1021.17 1021.39 1021.62 1021.85 1022.07 1022.27 1022.45 1022.61 1022.77 1022.92 1023.06 1023.21 1023.35 1023.48 1023.59
1017.68 1017.78 1017.78 1017.74 1017.70 1017.70 1017.76 1017.89 1018.08 1018.29 1018.49 1018.66 1018.77 1018.84 1018.86 1018.88 1018.91 1018.98 1019.10 1019.27 1019.47 1019.70 1019.93 1020.16 1020.38 1020.58 1020.78 1020.97 1021.17 1021.37 1021.57 1021.78 1021.99 1022.19 1022.38 1022.57 1022.76 1022.94 1023.11 1023.27 1023.42 1023.56 1023.67
1017.71 1017.84 1017.89 1017.88 1017.87 1017.88 1017.95 1018.09 1018.29 1018.52 1018.75 1018.96 1019.12 1019.22 1019.27 1019.27 1019.27 1019.28 1019.31 1019.40 1019.52 1019.69 1019.89 1020.10 1020.32 1020.53 1020.74 1020.93 1021.12 1021.30 1021.48 1021.67 1021.85 1022.04 1022.24 1022.44 1022.65 1022.85 1023.05 1023.23 1023.40 1023.55 1023.69
1017.69 1017.87 1017.98 1018.04 1018.07 1018.12 1018.21 1018.36 1018.57 1018.81 1019.07 1019.31 1019.50 1019.63 1019.69 1019.70 1019.66 1019.61 1019.57 1019.56 1019.61 1019.70 1019.84 1020.03 1020.23 1020.45 1020.65 1020.85 1021.03 1021.19 1021.35 1021.50 1021.66 1021.83 1022.01 1022.21 1022.43 1022.65 1022.86 1023.07 1023.27 1023.45 1023.61
1017.65 1017.89 1018.07 1018.20 1018.30 1018.39 1018.51 1018.67 1018.88 1019.12 1019.38 1019.64 1019.85 1020.01 1020.09 1020.10 1020.05 1019.96 1019.85 1019.77 1019.73 1019.75 1019.84 1019.97 1020.15 1020.35 1020.55 1020.74 1020.91 1021.05 1021.18 1021.30 1021.42 1021.56 1021.72 1021.91 1022.12 1022.34 1022.57 1022.80 1023.02 1023.23 1023.42
1017.61 1017.90 1018.15 1018.35 1018.52 1018.66 1018.80 1018.96 1019.15 1019.38 1019.63 1019.89 1020.13 1020.31 1020.42 1020.45 1020.40 1020.29 1020.15 1020.01 1019.91 1019.86 1019.88 1019.97 1020.11 1020.28 1020.47 1020.64 1020.78 1020.90 1021.00 1021.08 1021.17 1021.27 1021.40 1021.57 1021.76 1021.98 1022.21 1022.45 1022.68 1022.91 1023.13
1017.61 1017.94 1018.24 1018.50 1018.72 1018.89 1019.05 1019.19 1019.36 1019.56 1019.79 1020.04 1020.29 1020.50 1020.65 1020.72 1020.70 1020.60 1020.45 1020.29 1020.14 1020.04 1020.00 1020.03 1020.13 1020.26 1020.41 1020.55 1020.67 1020.76 1020.83 1020.88 1020.93 1021.01 1021.11 1021.24 1021.41 1021.61 1021.83 1022.05 1022.29 1022.52 1022.75
1017.65 1017.99 1018.33 1018.63 1018.88 1019.08 1019.23 1019.36 1019.49 1019.65 1019.85 1020.08 1020.34 1020.58 1020.77 1020.89 1020.93 1020.87 1020.74 1020.58 1020.41 1020.27 1020.18 1020.16 1020.20 1020.29 1020.40 1020.50 1020.60 1020.66 1020.70 1020.73 1020.75 1020.80 1020.87 1020.98 1021.12 1021.29 1021.48 1021.68 1021.89 1022.10 1022.32
1017.73 1018.08 1018.43 1018.75 1019.02 1019.22 1019.36 1019.46 1019.55 1019.67 1019.83 1020.05 1020.30 1020.57 1020.82 1021.00 1021.10 1021.10 1021.02 1020.87 1020.70 1020.54 1020.42 1020.35 1020.34 1020.37 1020.43 1020.50 1020.56 1020.59 1020.61 1020.62 1020.64 1020.67 1020.73 1020.81 1020.93 1021.06 1021.21 1021.37 1021.53 1021.70 1021.88
1017.84 1018.17 1018.53 1018.86 1019.13 1019.33 1019.45 1019.52 1019.58 1019.66 1019.79 1019.98 1020.24 1020.53 1020.82 1021.06 1021.23 1021.29 1021.26 1021.15 1020.99 1020.82 1020.67 1020.56 1020.50 1020.48 1020.50 1020.52 1020.55 1020.57 1020.57 1020.58 1020.59 1020.62 1020.67 1020.74 1020.83 1020.93 1021.03 1021.13 1021.23 1021.33 1021.44
1017.93 1018.26 1018.61 1018.94 1019.22 1019.41 1019.53 1019.58 1019.61 1019.66 1019.76 1019.94 1020.19 1020.49 1020.81 1021.09 1021.31 1021.43 1021.45 1021.38 1021.24 1021.08 1020.91 1020.77 1020.66 1020.60 1020.57 1020.56 1020.56 1020.56 1020.56 1020.56 1020.58 1020.61 1020.67 1020.73 1020.81 1020.88 1020.93 1020.97 1020.99 1021.01 1021.04
1017.98 1018.30 1018.65 1018.99 1019.27 1019.47 1019.59 1019.64 1019.66 1019.69 1019.77 1019.93 1020.17 1020.47 1020.80 1021.11 1021.36 1021.52 1021.57 1021.53 1021.42 1021.26 1021.09 1020.93 1020.79 1020.70 1020.63 1020.59 1020.56 1020.54 1020.53 1020.54 1020.57 1020.61 1020.67 1020.74 1020.81 1020.85 1020.87 1020.85 1020.80 1020.74 1020.69
1017.95 1018.27 1018.63 1018.97 1019.27 1019.49 1019.62 1019.68 1019.71 1019.73 1019.81 1019.95 1020.17 1020.45 1020.77 1021.08 1021.34 1021.52 1021.60 1021.58 1021.49 1021.35 1021.18 1021.01 1020.87 1020.75 1020.66 1020.59 1020.54 1020.50 1020.49 1020.49 1020.52 1020.57 1020.63 1020.71 1020.77 1020.80 1020.78 1020.73 1020.63 1020.50 1020.38
1017.82 1018.15 1018.52 1018.88 1019.19 1019.43 1019.59 1019.68 1019.72 1019.76 1019.82 1019.95 1020.15 1020.41 1020.71 1021.00 1021.24 1021.42 1021.51 1021.51 1021.44 1021.31 1021.16 1021.01 1020.86 1020.74 1020.63 1020.55 1020.48 1020.42 1020.39 1020.37 1020.39 1020.44 1020.50 1020.57 1020.63 1020.66 1020.63 1020.56 1020.43 1020.27 1020.09
1017.59 1017.93 1018.30 1018.67 1019.00 1019.27 1019.46 1019.57 1019.64 1019.69 1019.77 1019.89 1020.07 1020.29 1020.55 1020.81 1021.03 1021.20 1021.29 1021.30 1021.25 1021.15 1021.03 1020.90 1020.77 1020.66 1020.55 1020.45 1020.37 1020.29 1020.23 1020.19 1020.18 1020.21 1020.26 1020.32 1020.37 1020.39 1020.37 1020.30 1020.17 1020.00 1019.82
1017.28 1017.61 1017.98 1018.35 1018.69 1018.97 1019.18 1019.33 1019.42 1019.49 1019.58 1019.70 1019.86 1020.06 1020.28 1020.51 1020.70 1020.85 1020.93 1020.96 1020.93 1020.87 1020.78 1020.69 1020.60 1020.50 1020.40 1020.30 1020.20 1020.09 1020.00 1019.92 1019.87 1019.86 1019.88 1019.92 1019.97 1019.99 1019.98 1019.92 1019.82 1019.67 1019.51
1016.90 1017.21 1017.56 1017.92 1018.25 1018.53 1018.75 1018.91 1019.03 1019.12 1019.22 1019.34 1019.50 1019.68 1019.88 1020.08 1020.25 1020.39 1020.47 1020.51 1020.51 1020.48 1020.44 1020.38 1020.33 1020.26 1020.18 1020.08 1019.96 1019.83 1019.70 1019.58 1019.48 1019.42 1019.40 1019.40 1019.43 1019.45 1019.45 1019.42 1019.35 1019.25 1019.12
1016.49 1016.78 1017.09 1017.41 1017.71 1017.97 1018.19 1018.35 1018.48 1018.60 1018.71 1018.84 1019.00 1019.18 1019.37 1019.56 1019.72 1019.85 1019.94 1019.99 1020.01 1020.01 1020.01 1019.99 1019.97 1019.93 1019.87 1019.78 1019.66 1019.51 1019.34 1019.17 1019.02 1018.91 1018.83 1018.80 1018.79 1018.80 1018.81 1018.80 1018.76 1018.70 1018.63
1016.10 1016.34 1016.60 1016.87 1017.13 1017.35 1017.54 1017.70 1017.84 1017.96 1018.09 1018.25 1018.42 1018.61 1018.81 1019.00 1019.16 1019.29 1019.38 1019.45 1019.48 1019.50 1019.52 1019.53 1019.54 1019.53 1019.49 1019.40 1019.28 1019.12 1018.93 1018.72 1018.53 1018.36 1018.23 1018.14 1018.10 1018.08 1018.08 1018.07 1018.06 1018.04 1018.01
1015.76 1015.95 1016.15 1016.36 1016.57 1016.75 1016.90 1017.04 1017.17 1017.31 1017.46 1017.63 1017.84 1018.05 1018.27 1018.47 1018.65 1018.78 1018.87 1018.93 1018.97 1019.00 1019.02 1019.04 1019.05 1019.05 1019.02 1018.95 1018.84 1018.67 1018.47 1018.24 1018.01 1017.80 1017.62 1017.48 1017.39 1017.33 1017.30 1017.29 1017.28 1017.26 1017.25
1015.49 1015.64 1015.80 1015.96 1016.10 1016.24 1016.36 1016.47 1016.59 1016.73 1016.90 1017.11 1017.34 1017.58 1017.83 1018.05 1018.23 1018.37 1018.46 1018.50 1018.52 1018.53 1018.53 1018.53 1018.54 1018.53 1018.51 1018.45 1018.34 1018.18 1017.99 1017.75 1017.51 1017.26 1017.04 1016.85 1016.71 1016.60 1016.52 1016.47 1016.43 1016.40 1016.38
1015.33 1015.46 1015.59 1015.71 1015.82 1015.91 1016.00 1016.09 1016.20 1016.34 1016.53 1016.75 1017.01 1017.28 1017.55 1017.79 1017.98 1018.11 1018.18 1018.19 1018.17 1018.13 1018.09 1018.05 1018.03 1018.00 1017.97 1017.92 1017.82 1017.69 1017.50 1017.28 1017.03 1016.77 1016.51 1016.28 1016.08 1015.91 1015.77 1015.66 1015.57 1015.50 1015.44
1015.33 1015.46 1015.58 1015.68 1015.77 1015.83 1015.89 1015.97 1016.06 1016.20 1016.39 1016.63 1016.90 1017.19 1017.47 1017.72 1017.90 1018.01 1018.05 1018.01 1017.94 1017.84 1017.73 1017.64 1017.57 1017.51 1017.46 1017.40 1017.32 1017.20 1017.04 1016.83 1016.59 1016.32 1016.05 1015.77 1015.52 1015.28 1015.08 1014.90 1014.74 1014.60 1014.49
1015.52 1015.67 1015.80 1015.90 1015.98 1016.04 1016.08 1016.13 1016.21 1016.34 1016.53 1016.76 1017.03 1017.32 1017.60 1017.83 1017.99 1018.06 1018.05 1017.96 1017.82 1017.65 1017.47 1017.31 1017.18 1017.08 1017.00 1016.94 1016.86 1016.76 1016.62 1016.43 1016.20 1015.93 1015.63 1015.33 1015.02 1014.73 1014.45 1014.19 1013.96 1013.75 1013.57
1015.90 1016.09 1016.25 1016.37 1016.46 1016.51 1016.54 1016.58 1016.64 1016.74 1016.90 1017.11 1017.36 1017.62 1017.86 1018.06 1018.18 1018.21 1018.14 1017.99 1017.78 1017.53 1017.29 1017.06 1016.88 1016.73 1016.63 1016.55 1016.47 1016.38 1016.25 1016.08 1015.85 1015.57 1015.26 1014.92 1014.57 1014.22 1013.88 1013.56 1013.25 1012.97 1012.71
1016.47 1016.70 1016.89 1017.04 1017.14 1017.19 1017.21 1017.23 1017.26 1017.32 1017.44 1017.60 1017.79 1018.00 1018.19 1018.33 1018.39 1018.36 1018.24 1018.03 1017.76 1017.46 1017.16 1016.88 1016.65 1016.47 1016.34 1016.24 1016.15 1016.05 1015.93 1015.75 1015.52 1015.23 1014.90 1014.53 1014.14 1013.74 1013.34 1012.96 1012.60 1012.25 1011.93
Thickness
5728 5727 5726 5725 5725 5724 5723 5723 5723 5723 5723 5722 5722 5721 5721 5720 5719 5718 5717 5716 5715 5714 5713 5712 5712 5711 5710 5709 5708 5708 5707 5706 5705 5705 5704 5704 5704 5703 5703 5702 5701 5701 5700
5727 5725 5724 5723 5723 5722 5722 5722 5722 5721 5721 5720 5720 5719 5719 5719 5718 5717 5716 5715 5714 5713 5712 5711 5710 5709 5708 5707 5707 5706 5705 5704 5704 5703 5702 5702 5702 5701 5701 5700 5700 5699 5699
5725 5724 5723 5722 5721 5721 5720 5720 5720 5720 5719 5719 5718 5718 5717 5717 5716 5715 5715 5714 5713 5712 5711 5710 5709 5708 5707 5706 5705 5704 5703 5703 5702 5701 5701 5700 5700 5700 5699 5699 5698 5698 5697
5724 5723 5721 5720 5720 5720 5719 5719 5718 5717 5716 5716 5715 5715 5715 5715 5715 5714 5714 5713 5712 5711 5710 5710 5709 5707 5706 5705 5704 5703 5702 5701 5701 5700 5699 5699 5698 5698 5697 5697 5697 5696 5696
5722 5721 5720 5719 5718 5718 5718 5718 5716 5716 5714 5713 5713 5712 5713 5713 5713 5713 5713 5712 5711 5710 5710 5709 5708 5707 5706 5704 5703 5703 5701 5701 5700 5699 5698 5698 5697 5696 5695 5695 5695 5695 5694
5720 5720 5719 5718 5717 5717 5717 5716 5715 5714 5712 5712 5712 5710 5710 5711 5712 5712 5712 5711 5711 5710 5710 5709 5708 5707 5705 5704 5703 5702 5701 5700 5699 5698 5697 5697 5696 5695 5694 5694 5693 5693 5693
5719 5719 5718 5717 5716 5716 5715 5715 5714 5712 5710 5710 5709 5706 5708 5709 5710 5710 5710 5710 5710 5710 5709 5709 5708 5707 5706 5705 5704 5702 5701 5700 5699 5698 5697 5696 5695 5694 5694 5693 5692 5692 5692
5717 5717 5717 5716 5715 5714 5714 5714 5713 5710 5708 5708 5706 5702 5700 5703 5706 5709 5709 5709 5709 5709 5708 5708 5707 5706 5705 5704 5703 5703 5702 5701 5700 5699 5697 5696 5695 5694 5693 5693 5692 5691 5691
5715 5716 5715 5715 5714 5714 5713 5713 5713 5711 5707 5706 5706 5704 5698 5696 5700 5704 5706 5706 5707 5707 5707 5707 5706 5705 5705 5704 5703 5702 5702 5701 5700 5699 5697 5696 5695 5694 5693 5692 5692 5691 5691
5713 5714 5714 5713 5713 5712 5712 5712 5712 5711 5709 5705 5704 5704 5703 5702 5699 5698 5702 5704 5705 5705 5706 5706 5705 5704 5704 5703 5702 5701 5701 5700 5699 5698 5697 5696 5695 5694 5693 5692 5691 5691 5690
5711 5711 5711 5711 5711 5711 5711 5711 5710 5710 5709 5706 5705 5703 5701 5700 5700 5699 5697 5700 5702 5703 5704 5704 5703 5703 5702 5701 5701 5700 5699 5698 5697 5696 5696 5694 5694 5693 5692 5692 5691 5690 5690
5708 5709 5709 5709 5709 5709 5709 5709 5709 5708 5707 5706 5705 5704 5702 5701 5699 5698 5696 5696 5697 5700 5701 5702 5702 5701 5701 5700 5699 5698 5697 5696 5695 5694 5693 5693 5692 5691 5691 5690 5690 5689 5689
5706 5707 5708 5708 5708 5708 5708 5707 5706 5706 5705 5704 5703 5703 5702 5702 5701 5698 5696 5694 5693 5695 5697 5700 5700 5700 5699 5698 5697 5696 5695 5694 5693 5692 5691 5690 5690 5689 5688 5688 5688 5687 5687
5708 5708 5707 5707 5706 5706 5706 5705 5704 5703 5702 5702 5701 5700 5700 5699 5698 5698 5696 5693 5690 5690 5692 5695 5697 5697 5697 5696 5695 5694 5693 5692 5691 5690 5689 5688 5687 5687 5686 5686 5685 5685 5685
5708 5707 5706 5705 5704 5704 5703 5702 5701 5700 5699 5699 5698 5697 5697 5696 5696 5695 5694 5693 5689 5686 5687 5690 5692 5694 5694 5693 5693 5691 5691 5690 5688 5687 5687 5686 5685 5684 5684 5683 5683 5682 5682
5707 5706 5705 5704 5703 5702 5701 5700 5699 5698 5696 5695 5694 5693 5692 5692 5691 5691 5690 5688 5687 5685 5683 5685 5686 5688 5689 5689 5689 5688 5687 5687 5686 5685 5684 5683 5683 5682 5681 5681 5680 5680 5680
5706 5705 5704 5703 5702 5700 5699 5697 5696 5695 5693 5692 5691 5690 5689 5688 5687 5686 5685 5684 5682 5681 5679 5681 5681 5683 5683 5684 5684 5683 5683 5682 5682 5682 5682 5681 5681 5680 5679 5679 5678 5678 5677
5705 5704 5703 5702 5701 5699 5698 5696 5694 5693 5691 5689 5688 5687 5686 5685 5683 5682 5680 5679 5678 5677 5676 5676 5677 5677 5678 5678 5678 5678 5678 5678 5678 5679 5679 5679 5678 5678 5677 5677 5676 5676 5675
5703 5702 5701 5700 5698 5697 5695 5694 5692 5691 5689 5687 5685 5684 5682 5680 5679 5677 5676 5675 5674 5673 5671 5670 5671 5671 5672 5672 5671 5671 5672 5672 5673 5674 5675 5675 5675 5674 5674 5674 5674 5673 5672
5701 5700 5698 5697 5695 5694 5692 5690 5688 5687 5685 5683 5681 5680 5679 5676 5674 5673 5672 5671 5669 5667 5665 5664 5665 5665 5665 5665 5663 5663 5665 5666 5667 5669 5669 5670 5670 5670 5670 5670 5670 5669 5669
5698 5696 5695 5693 5691 5689 5688 5686 5684 5682 5680 5678 5676 5674 5673 5671 5670 5668 5666 5665 5662 5660 5659 5657 5658 5658 5659 5656 5656 5657 5658 5660 5662 5662 5663 5664 5664 5664 5664 5664 5664 5664 5664
5692 5690 5689 5687 5685 5683 5682 5681 5679 5677 5674 5671 5669 5667 5666 5664 5662 5661 5659 5658 5656 5654 5652 5650 5651 5651 5652 5651 5650 5649 5649 5649 5653 5657 5654 5656 5656 5657 5658 5657 5658 5658 5658
5684 5682 5680 5678 5675 5674 5673 5672 5669 5667 5664 5661 5659 5657 5656 5654 5652 5651 5649 5648 5646 5644 5643 5641 5641 5642 5642 5643 5640 5640 5639 5639 5643 5646 5643 5648 5649 5650 5651 5651 5651 5652 5652
5675 5673 5670 5668 5666 5663 5661 5661 5658 5655 5651 5649 5646 5645 5642 5640 5638 5637 5637 5636 5634 5632 5631 5630 5630 5630 5630 5629 5628 5628 5628 5630 5634 5635 5632 5636 5642 5643 5645 5644 5644 5644 5644
5665 5662 5659 5656 5654 5651 5649 5648 5646 5642 5637 5634 5632 5630 5629 5626 5624 5623 5623 5621 5621 5619 5619 5618 5617 5617 5617 5616 5615 5614 5616 5616 5621 5626 5624 5623 5630 5632 5636 5638 5638 5636 5636
5653 5649 5645 5642 5639 5636 5634 5633 5631 5628 5623 5621 5618 5616 5614 5612 5610 5609 5608 5607 5606 5606 5605 5606 5605 5605 5604 5604 5602 5601 5601 5602 5606 5610 5613 5610 5614 5614 5622 5629 5628 5626 5625